User: anonymous   Login
Location: Unspecified
(0.0000°N, 0.0000°E)
Time: 20:16:41
(UTC+00:00)
Language:

OBJECT R - Orbit

View from above orbital plane
View from above orbital plane
View from above satellite
View from above satellite

Ground track
Ground track

The orbit is defined by the following mean orbital elements,

1 64891U          26145.62229005 +.00000000 +00000-0 +42346-3 0 00007
2 64891  97.4531 114.8429 0003802 257.0571 103.0247 15.32561804    00
Epoch (UTC): 25 May 2026 14:56:05
Eccentricity: 0.0003802
inclination: 97.4531°
perigee height: 466 km
apogee height: 471 km
right ascension of ascending node: 114.8429°
argument of perigee: 257.0571°
revolutions per day: 15.32561804
mean anomaly at epoch: 103.0247°

The dashed part of the orbit path shows where the satellite is in the earth's shadow,  

DLR